Time,TemperatureF,DewpointF,PressureIn,WindDirection,WindDirectionDegrees,WindSpeedMPH,WindSpeedGustMPH,Humidity,HourlyPrecipIn,Conditions,Clouds,dailyrainin,SoftwareType,DateUTC
2013-05-16 00:10:00,57.0,-42.7,29.57,NNE,22,0.0,-999.0,1,-99.99,,,0.00,Acu-Link.com,2013-05-16 04:10:00,
2013-05-16 00:25:00,57.9,-42.1,29.56,NE,45,0.0,-999.0,1,-99.99,,,0.00,Acu-Link.com,2013-05-16 04:25:00,
2013-05-16 00:40:00,57.7,-42.3,29.57,ESE,112,0.0,-999.0,1,-99.99,,,0.00,Acu-Link.com,2013-05-16 04:40:00,
2013-05-16 00:56:00,57.4,-42.4,29.58,ENE,67,0.0,-999.0,1,-99.99,,,0.00,Acu-Link.com,2013-05-16 04:56:00,
2013-05-16 01:11:00,57.7,-42.3,29.55,SW,225,0.0,-999.0,1,-99.99,,,0.00,Acu-Link.com,2013-05-16 05:11:00,
2013-05-16 01:26:00,57.9,-42.1,29.56,North,0,0.0,-999.0,1,-99.99,,,0.00,Acu-Link.com,2013-05-16 05:26:00,
2013-05-16 01:41:00,58.5,-41.8,29.56,SSE,157,0.0,-999.0,1,-99.99,,,0.00,Acu-Link.com,2013-05-16 05:41:00,
2013-05-16 01:57:00,58.8,-41.6,29.58,SSW,202,0.0,-999.0,1,-99.99,,,0.00,Acu-Link.com,2013-05-16 05:57:00,
2013-05-16 02:12:00,58.1,-42.0,29.56,ESE,112,0.0,-999.0,1,-99.99,,,0.00,Acu-Link.com,2013-05-16 06:12:00,
2013-05-16 02:27:00,58.3,-41.9,29.58,SSE,157,0.0,-999.0,1,-99.99,,,0.00,Acu-Link.com,2013-05-16 06:27:00,
2013-05-16 02:43:00,58.3,-41.9,29.55,NE,45,0.0,-999.0,1,-99.99,,,0.00,Acu-Link.com,2013-05-16 06:43:00,
2013-05-16 02:58:00,58.8,-41.6,29.58,SW,225,0.0,-999.0,1,-99.99,,,0.00,Acu-Link.com,2013-05-16 06:58:00,
2013-05-16 03:13:00,58.5,-41.8,29.56,West,270,0.0,-999.0,1,-99.99,,,0.00,Acu-Link.com,2013-05-16 07:13:00,
2013-05-16 03:29:00,58.1,-42.0,29.57,East,90,0.0,-999.0,1,-99.99,,,0.00,Acu-Link.com,2013-05-16 07:29:00,
2013-05-16 03:44:00,57.9,-42.1,29.56,North,0,0.0,-999.0,1,-99.99,,,0.00,Acu-Link.com,2013-05-16 07:44:00,
2013-05-16 03:59:00,58.3,-41.9,29.57,East,90,0.0,-999.0,1,-99.99,,,0.00,Acu-Link.com,2013-05-16 07:59:00,
2013-05-16 04:15:00,57.9,-42.1,29.58,NE,45,0.0,-999.0,1,-99.99,,,0.00,Acu-Link.com,2013-05-16 08:15:00,
2013-05-16 04:30:00,57.4,-42.4,29.57,ENE,67,0.0,-999.0,1,-99.99,,,0.00,Acu-Link.com,2013-05-16 08:30:00,
2013-05-16 04:45:00,57.0,-42.7,29.56,NNE,22,0.0,-999.0,1,-99.99,,,0.00,Acu-Link.com,2013-05-16 08:45:00,
2013-05-16 05:00:00,56.8,-42.8,29.56,NNW,337,0.0,-999.0,1,-99.99,,,0.00,Acu-Link.com,2013-05-16 09:00:00,
2013-05-16 05:15:00,55.9,-43.3,29.58,NE,45,0.0,-999.0,1,-99.99,,,0.00,Acu-Link.com,2013-05-16 09:15:00,
2013-05-16 05:30:00,56.7,-42.9,29.58,NNW,337,0.0,-999.0,1,-99.99,,,0.00,Acu-Link.com,2013-05-16 09:30:00,
2013-05-16 05:45:00,57.0,-42.7,29.59,ENE,67,0.0,-999.0,1,-99.99,,,0.00,Acu-Link.com,2013-05-16 09:45:00,
2013-05-16 06:00:00,57.6,-42.3,29.60,ENE,67,0.0,-999.0,1,-99.99,,,0.00,Acu-Link.com,2013-05-16 10:00:00,
2013-05-16 06:16:00,57.2,-42.6,29.60,NNE,22,0.0,-999.0,1,-99.99,,,0.00,Acu-Link.com,2013-05-16 10:16:00,
2013-05-16 06:31:00,56.8,-42.8,29.58,WSW,247,0.0,-999.0,1,-99.99,,,0.00,Acu-Link.com,2013-05-16 10:31:00,
2013-05-16 06:46:00,57.2,-42.6,29.60,WSW,247,0.0,-999.0,1,-99.99,,,0.00,Acu-Link.com,2013-05-16 10:46:00,
2013-05-16 07:02:00,57.2,-42.6,29.60,SSW,202,0.0,-999.0,1,-99.99,,,0.00,Acu-Link.com,2013-05-16 11:02:00,
2013-05-16 07:17:00,58.1,-42.0,29.61,South,180,0.0,-999.0,1,-99.99,,,0.00,Acu-Link.com,2013-05-16 11:17:00,
2013-05-16 07:32:00,59.5,-41.2,29.63,SW,225,0.0,-999.0,1,-99.99,,,0.00,Acu-Link.com,2013-05-16 11:32:00,
2013-05-16 07:47:00,60.8,-40.4,29.63,West,270,0.0,-999.0,1,-99.99,,,0.00,Acu-Link.com,2013-05-16 11:47:00,
2013-05-16 08:02:00,61.5,-39.9,29.64,West,270,0.0,-999.0,1,-99.99,,,0.00,Acu-Link.com,2013-05-16 12:02:00,
2013-05-16 08:18:00,62.4,-39.4,29.64,South,180,0.0,-999.0,1,-99.99,,,0.00,Acu-Link.com,2013-05-16 12:18:00,
2013-05-16 08:33:00,64.4,-38.2,29.64,SW,225,2.2,-999.0,1,-99.99,,,0.00,Acu-Link.com,2013-05-16 12:33:00,
2013-05-16 08:48:00,67.1,-16.3,29.66,ESE,112,1.1,-999.0,3,-99.99,,,0.00,Acu-Link.com,2013-05-16 12:48:00,
2013-05-16 09:04:00,69.4,43.4,29.65,SW,225,2.7,-999.0,39,-99.99,,,0.00,Acu-Link.com,2013-05-16 13:04:00,
2013-05-16 09:19:00,69.6,53.2,29.65,SSW,202,0.0,-999.0,56,-99.99,,,0.00,Acu-Link.com,2013-05-16 13:19:00,
2013-05-16 09:34:00,69.6,53.7,29.65,WNW,292,1.1,-999.0,57,-99.99,,,0.00,Acu-Link.com,2013-05-16 13:34:00,
2013-05-16 09:50:00,71.1,56.5,29.66,South,180,1.7,-999.0,60,-99.99,,,0.00,Acu-Link.com,2013-05-16 13:50:00,
2013-05-16 10:05:00,72.0,57.3,29.65,SSW,202,0.0,-999.0,60,-99.99,,,0.00,Acu-Link.com,2013-05-16 14:05:00,
2013-05-16 10:20:00,72.7,55.1,29.65,SE,135,1.1,-999.0,54,-99.99,,,0.00,Acu-Link.com,2013-05-16 14:20:00,
2013-05-16 10:35:00,75.2,54.1,29.64,SSW,202,0.0,-999.0,48,-99.99,,,0.00,Acu-Link.com,2013-05-16 14:35:00,
2013-05-16 10:51:00,77.2,55.4,29.66,WSW,247,0.0,-999.0,47,-99.99,,,0.00,Acu-Link.com,2013-05-16 14:51:00,
2013-05-16 11:06:00,79.0,54.6,29.63,ESE,112,2.2,-999.0,43,-99.99,,,0.00,Acu-Link.com,2013-05-16 15:06:00,
2013-05-16 11:21:00,81.1,54.5,29.62,SW,225,2.2,-999.0,40,-99.99,,,0.00,Acu-Link.com,2013-05-16 15:21:00,
2013-05-16 11:37:00,80.4,47.0,29.64,East,90,0.0,-999.0,31,-99.99,,,0.00,Acu-Link.com,2013-05-16 15:37:00,
2013-05-16 11:52:00,80.6,46.3,29.62,ENE,67,1.1,-999.0,30,-99.99,,,0.00,Acu-Link.com,2013-05-16 15:52:00,
2013-05-16 12:07:00,82.8,46.3,29.62,NE,45,2.7,-999.0,28,-99.99,,,0.00,Acu-Link.com,2013-05-16 16:07:00,
2013-05-16 12:23:00,85.6,46.8,29.62,SSE,157,0.0,-999.0,26,-99.99,,,0.00,Acu-Link.com,2013-05-16 16:23:00,
2013-05-16 12:38:00,86.2,45.1,29.63,SSW,202,1.7,-999.0,24,-99.99,,,0.00,Acu-Link.com,2013-05-16 16:38:00,
2013-05-16 12:53:00,87.4,46.1,29.62,WSW,247,0.0,-999.0,24,-99.99,,,0.00,Acu-Link.com,2013-05-16 16:53:00,
2013-05-16 13:08:00,87.6,45.2,29.62,WNW,292,3.2,-999.0,23,-99.99,,,0.00,Acu-Link.com,2013-05-16 17:08:00,
2013-05-16 13:24:00,86.5,48.5,29.61,East,90,0.0,-999.0,27,-99.99,,,0.00,Acu-Link.com,2013-05-16 17:24:00,
2013-05-16 13:39:00,86.7,46.6,29.62,WSW,247,1.7,-999.0,25,-99.99,,,0.00,Acu-Link.com,2013-05-16 17:39:00,
2013-05-16 13:54:00,87.3,48.2,29.60,ESE,112,2.7,-999.0,26,-99.99,,,0.00,Acu-Link.com,2013-05-16 17:54:00,
2013-05-16 14:10:00,86.7,50.6,29.61,West,270,4.2,-999.0,29,-99.99,,,0.00,Acu-Link.com,2013-05-16 18:10:00,
2013-05-16 14:25:00,87.6,49.5,29.60,West,270,1.1,-999.0,27,-99.99,,,0.00,Acu-Link.com,2013-05-16 18:25:00,
2013-05-16 14:40:00,86.5,48.5,29.59,SSE,157,3.2,-999.0,27,-99.99,,,0.00,Acu-Link.com,2013-05-16 18:40:00,
2013-05-16 14:56:00,90.5,46.4,29.58,SSW,202,1.7,-999.0,22,-99.99,,,0.00,Acu-Link.com,2013-05-16 18:56:00,
2013-05-16 15:11:00,88.7,47.2,29.60,SSW,202,6.3,-999.0,24,-99.99,,,0.00,Acu-Link.com,2013-05-16 19:11:00,
2013-05-16 15:26:00,86.9,49.8,29.58,South,180,1.1,-999.0,28,-99.99,,,0.00,Acu-Link.com,2013-05-16 19:26:00,
2013-05-16 15:41:00,87.3,50.2,29.59,West,270,4.7,-999.0,28,-99.99,,,0.00,Acu-Link.com,2013-05-16 19:41:00,
2013-05-16 15:56:00,84.7,49.8,29.58,South,180,1.7,-999.0,30,-99.99,,,0.00,Acu-Link.com,2013-05-16 19:56:00,
2013-05-16 16:11:00,83.8,54.0,29.59,SSW,202,2.2,-999.0,36,-99.99,,,0.00,Acu-Link.com,2013-05-16 20:11:00,
2013-05-16 16:27:00,82.6,55.8,29.57,SW,225,2.2,-999.0,40,-99.99,,,0.00,Acu-Link.com,2013-05-16 20:27:00,
2013-05-16 16:42:00,87.1,48.0,29.59,SW,225,2.2,-999.0,26,-99.99,,,0.00,Acu-Link.com,2013-05-16 20:42:00,
2013-05-16 16:57:00,86.9,46.8,29.58,SW,225,1.7,-999.0,25,-99.99,,,0.00,Acu-Link.com,2013-05-16 20:57:00,
2013-05-16 17:13:00,87.1,43.6,29.57,SSW,202,2.7,-999.0,22,-99.99,,,0.00,Acu-Link.com,2013-05-16 21:13:00,
2013-05-16 17:28:00,86.0,42.7,29.58,SSW,202,5.8,-999.0,22,-99.99,,,0.00,Acu-Link.com,2013-05-16 21:28:00,
2013-05-16 17:43:00,86.7,43.3,29.57,SE,135,1.7,-999.0,22,-99.99,,,0.00,Acu-Link.com,2013-05-16 21:43:00,
2013-05-16 17:59:00,86.0,42.7,29.58,SW,225,2.7,-999.0,22,-99.99,,,0.00,Acu-Link.com,2013-05-16 21:59:00,
2013-05-16 18:14:00,86.2,46.2,29.58,East,90,1.7,-999.0,25,-99.99,,,0.00,Acu-Link.com,2013-05-16 22:14:00,
2013-05-16 18:29:00,84.6,44.9,29.58,SW,225,1.7,-999.0,25,-99.99,,,0.00,Acu-Link.com,2013-05-16 22:29:00,
2013-05-16 18:44:00,81.9,44.6,29.60,SSW,202,4.2,-999.0,27,-99.99,,,0.00,Acu-Link.com,2013-05-16 22:44:00,
2013-05-16 19:00:00,80.1,45.0,29.58,SSE,157,1.7,-999.0,29,-99.99,,,0.00,Acu-Link.com,2013-05-16 23:00:00,
2013-05-16 19:15:00,78.1,54.4,29.61,SE,135,2.2,-999.0,44,-99.99,,,0.00,Acu-Link.com,2013-05-16 23:15:00,
2013-05-16 19:30:00,76.1,60.7,29.60,SSE,157,0.0,-999.0,59,-99.99,,,0.00,Acu-Link.com,2013-05-16 23:30:00,
2013-05-16 19:45:00,73.8,61.7,29.61,SSE,157,0.0,-999.0,66,-99.99,,,0.00,Acu-Link.com,2013-05-16 23:45:00,
2013-05-16 20:01:00,72.3,61.5,29.62,ENE,67,0.0,-999.0,69,-99.99,,,0.00,Acu-Link.com,2013-05-17 00:01:00,
2013-05-16 20:16:00,71.1,62.8,29.64,ESE,112,0.0,-999.0,75,-99.99,,,0.00,Acu-Link.com,2013-05-17 00:16:00,
2013-05-16 20:31:00,69.3,62.1,29.63,WSW,247,0.0,-999.0,78,-99.99,,,0.00,Acu-Link.com,2013-05-17 00:31:00,
2013-05-16 20:46:00,67.3,61.6,29.63,SW,225,0.0,-999.0,82,-99.99,,,0.00,Acu-Link.com,2013-05-17 00:46:00,
2013-05-16 21:02:00,66.6,60.9,29.64,SSW,202,0.0,-999.0,82,-99.99,,,0.00,Acu-Link.com,2013-05-17 01:02:00,
2013-05-16 21:17:00,66.0,60.7,29.66,NE,45,1.7,-999.0,83,-99.99,,,0.00,Acu-Link.com,2013-05-17 01:17:00,
2013-05-16 21:32:00,64.8,61.2,29.66,SSW,202,0.0,-999.0,88,-99.99,,,0.00,Acu-Link.com,2013-05-17 01:32:00,
2013-05-16 21:47:00,63.3,60.9,29.66,East,90,0.0,-999.0,92,-99.99,,,0.00,Acu-Link.com,2013-05-17 01:47:00,
2013-05-16 22:03:00,61.9,61.3,29.67,NE,45,0.0,-999.0,98,-99.99,,,0.00,Acu-Link.com,2013-05-17 02:03:00,
2013-05-16 22:18:00,61.7,61.1,29.69,ENE,67,0.0,-999.0,98,-99.99,,,0.00,Acu-Link.com,2013-05-17 02:18:00,
2013-05-16 22:33:00,60.4,59.8,29.68,East,90,1.1,-999.0,98,-99.99,,,0.00,Acu-Link.com,2013-05-17 02:33:00,
2013-05-16 22:48:00,59.9,59.3,29.68,East,90,0.0,-999.0,98,-99.99,,,0.00,Acu-Link.com,2013-05-17 02:48:00,
2013-05-16 23:04:00,59.7,59.1,29.69,NNE,22,0.0,-999.0,98,-99.99,,,0.00,Acu-Link.com,2013-05-17 03:04:00,
2013-05-16 23:19:00,60.4,58.7,29.68,East,90,0.0,-999.0,94,-99.99,,,0.00,Acu-Link.com,2013-05-17 03:19:00,
2013-05-16 23:34:00,63.5,51.1,29.70,East,90,0.0,-999.0,64,-99.99,,,0.00,Acu-Link.com,2013-05-17 03:34:00,
2013-05-16 23:50:00,63.9,51.5,29.70,NE,45,0.0,-999.0,64,-99.99,,,0.00,Acu-Link.com,2013-05-17 03:50:00,